Regional Weather Roundup
Issued by NWS

Home | Current Version | Previous Version | Text Only | Print | Product List | Glossary On
Versions: 1 2 3 4 5 6 7 8 9 10 11 12 13 14 15 16 17 18 19 20 21 22 23 24 25 26 27 28 29 30 31 32 33 34 35 36 37 38 39 40 41 42 43 44 45 46 47 48 49 50
000
ASUS45 KCYS 011710
RWRWY

WYOMING REGIONAL WEATHER ROUNDUP
NATIONAL WEATHER SERVICE CHEYENNE WY
1100 AM MDT WED JUL 01 2015

NOTE:  "FAIR" INDICATES FEW OR NO CLOUDS BELOW 12,000 FEET
WITH NO SIGNIFICANT WEATHER AND/OR OBSTRUCTIONS TO VISIBILITY.

WYZ001-011800-
YELLOWSTONE NATIONAL PARK

CITY           SKY/WX    TMP DP  RH WIND       PRES   REMARKS
LK YELLOWSTONE   N/A     65  48  54 E5        30.35F
W YELLOWSTONE  NOT AVBL

$$
WYZ002>013-054>058-071-098>099-011800-
NORTHERN WYOMING

CITY           SKY/WX    TMP DP  RH WIND       PRES   REMARKS
JACKSON        FAIR      72  52  49 W3        30.25S
CODY           FAIR      79  48  34 NE3       30.13S
GREYBULL       FAIR      84  51  31 VRB3      30.03F
WORLAND        FAIR      80  53  39 CALM      30.06F
SHERIDAN       FAIR      83  49  30 VRB6      30.07S
BUFFALO        FAIR      79  48  33 VRB5      30.13F
GILLETTE       FAIR      80  52  37 N9        30.09S
HULETT         FAIR      77  57  50 N6        30.09R HAZE
NEWCASTLE      FAIR      81  46  30 NW13      30.07S

$$
WYZ014>020-022>026-101>103-011800-
CENTRAL WYOMING

CITY           SKY/WX    TMP DP  RH WIND       PRES   REMARKS
BIG PINEY      FAIR      78  49  35 SW7       30.29F
PINEDALE       FAIR      75  45  33 NW9       30.29F
DUBOIS         FAIR      77  45  31 CALM      30.25F
LANDER         FAIR      79  55  43 NE6       30.14F
RIVERTON       FAIR      78  54  43 NE6       30.15F
CASPER         FAIR      80  51  36 NW10      30.15S
DOUGLAS        FAIR      82  50  32 NE8       30.13F

$$
WYZ021-027>030-104>119-011800-
SOUTHERN WYOMING

CITY           SKY/WX    TMP DP  RH WIND       PRES   REMARKS
EVANSTON       FAIR      79  47  32 VRB3      30.31S
KEMMERER       FAIR      79  45  29 NW10      30.32S
FORT BRIDGER   SUNNY     82  45  26 N8        30.32F
ROCK SPRINGS   FAIR      77  53  43 VRB3      30.27S
DIXON          FAIR      75  49  40 W3        30.28S
RAWLINS        FAIR      76  51  41 VRB5      30.27F
SARATOGA       FAIR      77  50  38 N3        30.29S
LARAMIE        FAIR      76  46  34 VRB3      30.29F
CHEYENNE       FAIR      78  52  40 NE8       30.21S
TORRINGTON     FAIR      88  47  24 W6        30.06S
PINE BLUFFS    FAIR      81  54  39 N12       30.15S

$$



USA.gov is the U.S. government's official web portal to all federal, state and local government web resources and services.